Year,Month,Day,Hour,Minute,Value (Times are PST for temperature in C)
2016,04,01,00,00,8.30
2016,04,01,00,01,8.30
2016,04,01,00,02,8.30
2016,04,01,00,03,8.20
2016,04,01,00,04,8.20
2016,04,01,00,05,8.20
2016,04,01,00,06,8.20
2016,04,01,00,07,8.20
2016,04,01,00,08,8.20
2016,04,01,00,09,8.20
2016,04,01,00,10,8.10
2016,04,01,00,11,8.10
2016,04,01,00,12,8.10
2016,04,01,00,13,8.10
2016,04,01,00,14,8.10
2016,04,01,00,15,8.10
2016,04,01,00,16,8.10
2016,04,01,00,17,8.10
2016,04,01,00,18,8.10
2016,04,01,00,19,8.10
2016,04,01,00,20,8.00
2016,04,01,00,21,8.00
2016,04,01,00,22,8.00
2016,04,01,00,23,8.00
2016,04,01,00,24,7.90
2016,04,01,00,25,7.90
2016,04,01,00,26,7.90
2016,04,01,00,27,7.90
2016,04,01,00,28,7.80
2016,04,01,00,29,7.80
2016,04,01,00,30,7.80
2016,04,01,00,31,7.80
2016,04,01,00,32,7.80
2016,04,01,00,33,7.80
2016,04,01,00,34,7.80
2016,04,01,00,35,7.80
2016,04,01,00,36,7.80
2016,04,01,00,37,7.80
2016,04,01,00,38,7.80
2016,04,01,00,39,7.80
2016,04,01,00,40,7.80
2016,04,01,00,41,7.70
2016,04,01,00,42,7.70
2016,04,01,00,43,7.70
2016,04,01,00,44,7.70
2016,04,01,00,45,7.70
2016,04,01,00,46,7.70
2016,04,01,00,47,7.70
2016,04,01,00,48,7.70
2016,04,01,00,49,7.70
2016,04,01,00,50,7.70
2016,04,01,00,51,7.70
2016,04,01,00,52,7.70
2016,04,01,00,53,7.70
2016,04,01,00,54,7.70
2016,04,01,00,55,7.70
2016,04,01,00,56,7.60
2016,04,01,00,57,7.60
2016,04,01,00,58,7.60
2016,04,01,00,59,7.60
2016,04,01,01,00,7.60
2016,04,01,01,01,7.60
2016,04,01,01,02,7.60
2016,04,01,01,03,7.50
2016,04,01,01,04,7.50
2016,04,01,01,05,7.50
2016,04,01,01,06,7.50
2016,04,01,01,07,7.50
2016,04,01,01,08,7.50
2016,04,01,01,09,7.50
2016,04,01,01,10,7.50
2016,04,01,01,11,7.50
2016,04,01,01,12,7.50
2016,04,01,01,13,7.50
2016,04,01,01,14,7.50
2016,04,01,01,15,7.50
2016,04,01,01,16,7.50
2016,04,01,01,17,7.50
2016,04,01,01,18,7.50
2016,04,01,01,19,7.50
2016,04,01,01,20,7.40
2016,04,01,01,21,7.40
2016,04,01,01,22,7.40
2016,04,01,01,23,7.40
2016,04,01,01,24,7.40
2016,04,01,01,25,7.30
2016,04,01,01,26,7.30
2016,04,01,01,27,7.30
2016,04,01,01,28,7.30
2016,04,01,01,29,7.30
2016,04,01,01,30,7.30
2016,04,01,01,31,7.30
2016,04,01,01,32,7.30
2016,04,01,01,33,7.20
2016,04,01,01,34,7.20
2016,04,01,01,35,7.20
2016,04,01,01,36,7.20
2016,04,01,01,37,7.20
2016,04,01,01,38,7.20
2016,04,01,01,39,7.20
2016,04,01,01,40,7.20
2016,04,01,01,41,7.20
2016,04,01,01,42,7.20
2016,04,01,01,43,7.20
2016,04,01,01,44,7.20
2016,04,01,01,45,7.20
2016,04,01,01,46,7.20
2016,04,01,01,47,7.20
2016,04,01,01,48,7.20
2016,04,01,01,49,7.20
2016,04,01,01,50,7.20
2016,04,01,01,51,7.20
2016,04,01,01,52,7.20
2016,04,01,01,53,7.20
2016,04,01,01,54,7.20
2016,04,01,01,55,7.20
2016,04,01,01,56,7.20
2016,04,01,01,57,7.20
2016,04,01,01,58,7.20
2016,04,01,01,59,7.20
2016,04,01,02,00,7.20
2016,04,01,02,01,7.20
2016,04,01,02,02,7.20
2016,04,01,02,03,7.20
2016,04,01,02,04,7.20
2016,04,01,02,05,7.20
2016,04,01,02,06,7.20
2016,04,01,02,07,7.10
2016,04,01,02,08,7.10
2016,04,01,02,09,7.10
2016,04,01,02,10,7.10
2016,04,01,02,11,7.10
2016,04,01,02,12,7.10
2016,04,01,02,13,7.10
2016,04,01,02,14,7.10
2016,04,01,02,15,7.10
2016,04,01,02,16,7.10
2016,04,01,02,17,7.10
2016,04,01,02,18,7.20
2016,04,01,02,19,7.10
2016,04,01,02,20,7.20
2016,04,01,02,21,7.10
2016,04,01,02,22,7.10
2016,04,01,02,23,7.10
2016,04,01,02,24,7.10
2016,04,01,02,25,7.10
2016,04,01,02,26,7.10
2016,04,01,02,27,7.10
2016,04,01,02,28,7.00
2016,04,01,02,29,7.00
2016,04,01,02,30,7.00
2016,04,01,02,31,7.00
2016,04,01,02,32,6.90
2016,04,01,02,33,6.90
2016,04,01,02,34,6.90
2016,04,01,02,35,6.90
2016,04,01,02,36,6.90
2016,04,01,02,37,6.90
2016,04,01,02,38,6.90
2016,04,01,02,39,6.90
2016,04,01,02,40,6.90
2016,04,01,02,41,6.90
2016,04,01,02,42,6.90
2016,04,01,02,43,6.90
2016,04,01,02,44,6.90
2016,04,01,02,45,6.90
2016,04,01,02,46,6.90
2016,04,01,02,47,6.90
2016,04,01,02,48,6.90
2016,04,01,02,49,6.90
2016,04,01,02,50,6.90
2016,04,01,02,51,7.00
2016,04,01,02,52,7.00
2016,04,01,02,53,7.00
2016,04,01,02,54,7.10
2016,04,01,02,55,7.10
2016,04,01,02,56,7.10
2016,04,01,02,57,7.10
2016,04,01,02,58,7.10
2016,04,01,02,59,7.10
2016,04,01,03,00,7.10
2016,04,01,03,01,7.10
2016,04,01,03,02,7.20
2016,04,01,03,03,7.20
2016,04,01,03,04,7.20
2016,04,01,03,05,7.20
2016,04,01,03,06,7.20
2016,04,01,03,07,7.20
2016,04,01,03,08,7.20
2016,04,01,03,09,7.20
2016,04,01,03,10,7.20
2016,04,01,03,11,7.20
2016,04,01,03,12,7.20
2016,04,01,03,13,7.20
2016,04,01,03,14,7.20
2016,04,01,03,15,7.20
2016,04,01,03,16,7.20
2016,04,01,03,17,7.20
2016,04,01,03,18,7.20
2016,04,01,03,19,7.20
2016,04,01,03,20,7.20
2016,04,01,03,21,7.20
2016,04,01,03,22,7.20
2016,04,01,03,23,7.20
2016,04,01,03,24,7.30
2016,04,01,03,25,7.30
2016,04,01,03,26,7.30
2016,04,01,03,27,7.30
2016,04,01,03,28,7.30
2016,04,01,03,29,7.30
2016,04,01,03,30,7.30
2016,04,01,03,31,7.30
2016,04,01,03,32,7.20
2016,04,01,03,33,7.20
2016,04,01,03,34,7.20
2016,04,01,03,35,7.20
2016,04,01,03,36,7.20
2016,04,01,03,37,7.20
2016,04,01,03,38,7.20
2016,04,01,03,39,7.20
2016,04,01,03,40,7.10
2016,04,01,03,41,7.10
2016,04,01,03,42,7.10
2016,04,01,03,43,7.10
2016,04,01,03,44,7.10
2016,04,01,03,45,7.00
2016,04,01,03,46,7.00
2016,04,01,03,47,7.00
2016,04,01,03,48,7.00
2016,04,01,03,49,7.00
2016,04,01,03,50,7.00
2016,04,01,03,51,7.00
2016,04,01,03,52,7.00
2016,04,01,03,53,7.00
2016,04,01,03,54,7.00
2016,04,01,03,55,7.00
2016,04,01,03,56,7.00
2016,04,01,03,57,7.00
2016,04,01,03,58,7.00
2016,04,01,03,59,7.00
2016,04,01,04,00,7.00
2016,04,01,04,01,7.00
2016,04,01,04,02,7.00
2016,04,01,04,03,7.00
2016,04,01,04,04,7.00
2016,04,01,04,05,7.00
2016,04,01,04,06,7.00
2016,04,01,04,07,7.00
2016,04,01,04,08,7.00
2016,04,01,04,09,7.00
2016,04,01,04,10,7.00
2016,04,01,04,11,7.00
2016,04,01,04,12,7.00
2016,04,01,04,13,7.00
2016,04,01,04,14,6.90
2016,04,01,04,15,6.90
2016,04,01,04,16,6.90
2016,04,01,04,17,6.90
2016,04,01,04,18,6.90
2016,04,01,04,19,6.90
2016,04,01,04,20,6.90
2016,04,01,04,21,6.90
2016,04,01,04,22,6.80
2016,04,01,04,23,6.80
2016,04,01,04,24,6.80
2016,04,01,04,25,6.80
2016,04,01,04,26,6.80
2016,04,01,04,27,6.70
2016,04,01,04,28,6.70
2016,04,01,04,29,6.70
2016,04,01,04,30,6.70
2016,04,01,04,31,6.60
2016,04,01,04,32,6.60
2016,04,01,04,33,6.60
2016,04,01,04,34,6.50
2016,04,01,04,35,6.50
2016,04,01,04,36,6.40
2016,04,01,04,37,6.40
2016,04,01,04,38,6.40
2016,04,01,04,39,6.30
2016,04,01,04,40,6.30
2016,04,01,04,41,6.30
2016,04,01,04,42,6.30
2016,04,01,04,43,6.20
2016,04,01,04,44,6.20
2016,04,01,04,45,6.20
2016,04,01,04,46,6.10
2016,04,01,04,47,6.10
2016,04,01,04,48,6.10
2016,04,01,04,49,6.10
2016,04,01,04,50,6.00
2016,04,01,04,51,6.00
2016,04,01,04,52,6.00
2016,04,01,04,53,5.90
2016,04,01,04,54,5.90
2016,04,01,04,55,5.90
2016,04,01,04,56,5.90
2016,04,01,04,57,5.80
2016,04,01,04,58,5.80
2016,04,01,04,59,5.80
2016,04,01,05,00,5.80
2016,04,01,05,01,5.80
2016,04,01,05,02,5.80
2016,04,01,05,03,5.80
2016,04,01,05,04,5.80
2016,04,01,05,05,5.80
2016,04,01,05,06,5.80
2016,04,01,05,07,5.80
2016,04,01,05,08,5.80
2016,04,01,05,09,5.80
2016,04,01,05,10,5.80
2016,04,01,05,11,5.80
2016,04,01,05,12,5.70
2016,04,01,05,13,5.70
2016,04,01,05,14,5.70
2016,04,01,05,15,5.70
2016,04,01,05,16,5.70
2016,04,01,05,17,5.70
2016,04,01,05,18,5.70
2016,04,01,05,19,5.70
2016,04,01,05,20,5.60
2016,04,01,05,21,5.60
2016,04,01,05,22,5.60
2016,04,01,05,23,5.60
2016,04,01,05,24,5.60
2016,04,01,05,25,5.60
2016,04,01,05,26,5.60
2016,04,01,05,27,5.60
2016,04,01,05,28,5.60
2016,04,01,05,29,5.60
2016,04,01,05,30,5.60
2016,04,01,05,31,5.60
2016,04,01,05,32,5.60
2016,04,01,05,33,5.60
2016,04,01,05,34,5.50
2016,04,01,05,35,5.50
2016,04,01,05,36,5.50
2016,04,01,05,37,5.50
2016,04,01,05,38,5.50
2016,04,01,05,39,5.40
2016,04,01,05,40,5.40
2016,04,01,05,41,5.40
2016,04,01,05,42,5.40
2016,04,01,05,43,5.40
2016,04,01,05,44,5.40
2016,04,01,05,45,5.40
2016,04,01,05,46,5.40
2016,04,01,05,47,5.40
2016,04,01,05,48,5.30
2016,04,01,05,49,5.30
2016,04,01,05,50,5.30
2016,04,01,05,51,5.30
2016,04,01,05,52,5.30
2016,04,01,05,53,5.30
2016,04,01,05,54,5.30
2016,04,01,05,55,5.30
2016,04,01,05,56,5.30
2016,04,01,05,57,5.30
2016,04,01,05,58,5.30
2016,04,01,05,59,5.30
2016,04,01,06,00,5.30
2016,04,01,06,01,5.30
2016,04,01,06,02,5.30
2016,04,01,06,03,5.30
2016,04,01,06,04,5.40
2016,04,01,06,05,5.40
2016,04,01,06,06,5.40
2016,04,01,06,07,5.40
2016,04,01,06,08,5.40
2016,04,01,06,09,5.40
2016,04,01,06,10,5.40
2016,04,01,06,11,5.40
2016,04,01,06,12,5.40
2016,04,01,06,13,5.40
2016,04,01,06,14,5.40
2016,04,01,06,15,5.40
2016,04,01,06,16,5.40
2016,04,01,06,17,5.40
2016,04,01,06,18,5.40
2016,04,01,06,19,5.40
2016,04,01,06,20,5.30
2016,04,01,06,21,5.30
2016,04,01,06,22,5.30
2016,04,01,06,23,5.30
2016,04,01,06,24,5.30
2016,04,01,06,25,5.30
2016,04,01,06,26,5.30
2016,04,01,06,27,5.30
2016,04,01,06,28,5.30
2016,04,01,06,29,5.20
2016,04,01,06,30,5.20
2016,04,01,06,31,5.20
2016,04,01,06,32,5.20
2016,04,01,06,33,5.20
2016,04,01,06,34,5.20
2016,04,01,06,35,5.20
2016,04,01,06,36,5.10
2016,04,01,06,37,5.10
2016,04,01,06,38,5.10
2016,04,01,06,39,5.10
2016,04,01,06,40,5.10
2016,04,01,06,41,5.10
2016,04,01,06,42,5.10
2016,04,01,06,43,5.00
2016,04,01,06,44,5.00
2016,04,01,06,45,5.00
2016,04,01,06,46,5.00
2016,04,01,06,47,4.90
2016,04,01,06,48,4.90
2016,04,01,06,49,4.90
2016,04,01,06,50,4.90
2016,04,01,06,51,4.90
2016,04,01,06,52,4.90
2016,04,01,06,53,4.90
2016,04,01,06,54,4.90
2016,04,01,06,55,4.90
2016,04,01,06,56,4.90
2016,04,01,06,57,4.90
2016,04,01,06,58,4.90
2016,04,01,06,59,4.90
2016,04,01,07,00,5.00
2016,04,01,07,01,5.00
2016,04,01,07,02,5.00
2016,04,01,07,03,5.10
2016,04,01,07,04,5.10
2016,04,01,07,05,5.10
2016,04,01,07,06,5.20
2016,04,01,07,07,5.20
2016,04,01,07,08,5.20
2016,04,01,07,09,5.20
2016,04,01,07,10,5.20
2016,04,01,07,11,5.30
2016,04,01,07,12,5.30
2016,04,01,07,13,5.30
2016,04,01,07,14,5.30
2016,04,01,07,15,5.30
2016,04,01,07,16,5.30
2016,04,01,07,17,5.30
2016,04,01,07,18,5.40
2016,04,01,07,19,5.40
2016,04,01,07,20,5.40
2016,04,01,07,21,5.40
2016,04,01,07,22,5.40
2016,04,01,07,23,5.40
2016,04,01,07,24,5.40
2016,04,01,07,25,5.40
2016,04,01,07,26,5.40
2016,04,01,07,27,5.40
2016,04,01,07,28,5.50
2016,04,01,07,29,5.50
2016,04,01,07,30,5.50
2016,04,01,07,31,5.60
2016,04,01,07,32,5.60
2016,04,01,07,33,5.60
2016,04,01,07,34,5.60
2016,04,01,07,35,5.60
2016,04,01,07,36,5.60
2016,04,01,07,37,5.60
2016,04,01,07,38,5.70
2016,04,01,07,39,5.70
2016,04,01,07,40,5.70
2016,04,01,07,41,5.70
2016,04,01,07,42,5.70
2016,04,01,07,43,5.70
2016,04,01,07,44,5.70
2016,04,01,07,45,5.70
2016,04,01,07,46,5.70
2016,04,01,07,47,5.70
2016,04,01,07,48,5.80
2016,04,01,07,49,5.80
2016,04,01,07,50,5.90
2016,04,01,07,51,6.00
2016,04,01,07,52,6.00
2016,04,01,07,53,6.10
2016,04,01,07,54,6.20
2016,04,01,07,55,6.30
2016,04,01,07,56,6.40
2016,04,01,07,57,6.60
2016,04,01,07,58,6.80
2016,04,01,07,59,7.00
2016,04,01,08,00,7.10
2016,04,01,08,01,7.30
2016,04,01,08,02,7.30
2016,04,01,08,03,7.30
2016,04,01,08,04,7.30
2016,04,01,08,05,7.40
2016,04,01,08,06,7.40
2016,04,01,08,07,7.40
2016,04,01,08,08,7.40
2016,04,01,08,09,7.50
2016,04,01,08,10,7.60
2016,04,01,08,11,7.70
2016,04,01,08,12,7.80
2016,04,01,08,13,7.80
2016,04,01,08,14,7.80
2016,04,01,08,15,7.80
2016,04,01,08,16,7.90
2016,04,01,08,17,7.90
2016,04,01,08,18,7.90
2016,04,01,08,19,7.90
2016,04,01,08,20,7.90
2016,04,01,08,21,8.00
2016,04,01,08,22,8.00
2016,04,01,08,23,8.00
2016,04,01,08,24,8.00
2016,04,01,08,25,8.10
2016,04,01,08,26,8.10
2016,04,01,08,27,8.10
2016,04,01,08,28,8.20
2016,04,01,08,29,8.20
2016,04,01,08,30,8.20
2016,04,01,08,31,8.30
2016,04,01,08,32,8.30
2016,04,01,08,33,8.40
2016,04,01,08,34,8.40
2016,04,01,08,35,8.50
2016,04,01,08,36,8.60
2016,04,01,08,37,8.70
2016,04,01,08,38,8.90
2016,04,01,08,39,9.00
2016,04,01,08,40,9.10
2016,04,01,08,41,9.30
2016,04,01,08,42,9.40
2016,04,01,08,43,9.50
2016,04,01,08,44,9.60
2016,04,01,08,45,9.70
2016,04,01,08,46,9.80
2016,04,01,08,47,9.90
2016,04,01,08,48,10.00
2016,04,01,08,49,10.10
2016,04,01,08,50,10.20
2016,04,01,08,51,10.20
2016,04,01,08,52,10.30
2016,04,01,08,53,10.30
2016,04,01,08,54,10.40
2016,04,01,08,55,10.50
2016,04,01,08,56,10.60
2016,04,01,08,57,10.60
2016,04,01,08,58,10.60
2016,04,01,08,59,10.60
2016,04,01,09,00,10.60
2016,04,01,09,01,10.60
2016,04,01,09,02,10.60
2016,04,01,09,03,10.70
2016,04,01,09,04,10.80
2016,04,01,09,05,10.80
2016,04,01,09,06,10.80
2016,04,01,09,07,10.90
2016,04,01,09,08,10.90
2016,04,01,09,09,10.90
2016,04,01,09,10,11.00
2016,04,01,09,11,11.00
2016,04,01,09,12,11.10
2016,04,01,09,13,11.10
2016,04,01,09,14,11.10
2016,04,01,09,15,11.20
2016,04,01,09,16,11.20
2016,04,01,09,17,11.30
2016,04,01,09,18,11.30
2016,04,01,09,19,11.40
2016,04,01,09,20,11.40
2016,04,01,09,21,11.50
2016,04,01,09,22,11.60
2016,04,01,09,23,11.60
2016,04,01,09,24,11.70
2016,04,01,09,25,11.70
2016,04,01,09,26,11.70
2016,04,01,09,27,11.80
2016,04,01,09,28,11.80
2016,04,01,09,29,11.80
2016,04,01,09,30,11.80
2016,04,01,09,31,11.80
2016,04,01,09,32,11.80
2016,04,01,09,33,11.80
2016,04,01,09,34,11.80
2016,04,01,09,35,11.80
2016,04,01,09,36,11.80
2016,04,01,09,37,11.80
2016,04,01,09,38,11.80
2016,04,01,09,39,11.90
2016,04,01,09,40,12.00
2016,04,01,09,41,12.00
2016,04,01,09,42,12.10
2016,04,01,09,43,12.10
2016,04,01,09,44,12.20
2016,04,01,09,45,12.30
2016,04,01,09,46,12.30
2016,04,01,09,47,12.40
2016,04,01,09,48,12.40
2016,04,01,09,49,12.40
2016,04,01,09,50,12.40
2016,04,01,09,51,12.40
2016,04,01,09,52,12.40
2016,04,01,09,53,12.40
2016,04,01,09,54,12.50
2016,04,01,09,55,12.50
2016,04,01,09,56,12.50
2016,04,01,09,57,12.50
2016,04,01,09,58,12.50
2016,04,01,09,59,12.60
2016,04,01,10,00,12.60
2016,04,01,10,01,12.60
2016,04,01,10,02,12.60
2016,04,01,10,03,12.70
2016,04,01,10,04,12.70
2016,04,01,10,05,12.70
2016,04,01,10,06,12.70
2016,04,01,10,07,12.70
2016,04,01,10,08,12.80
2016,04,01,10,09,12.80
2016,04,01,10,10,12.80
2016,04,01,10,11,12.80
2016,04,01,10,12,12.80
2016,04,01,10,13,12.80
2016,04,01,10,14,12.80
2016,04,01,10,15,12.80
2016,04,01,10,16,12.80
2016,04,01,10,17,12.90
2016,04,01,10,18,12.90
2016,04,01,10,19,12.90
2016,04,01,10,20,12.90
2016,04,01,10,21,12.90
2016,04,01,10,22,12.90
2016,04,01,10,23,12.90
2016,04,01,10,24,13.00
2016,04,01,10,25,13.00
2016,04,01,10,26,13.10
2016,04,01,10,27,13.10
2016,04,01,10,28,13.10
2016,04,01,10,29,13.00
2016,04,01,10,30,12.90
2016,04,01,10,31,12.90
2016,04,01,10,32,12.80
2016,04,01,10,33,12.80
2016,04,01,10,34,12.80
2016,04,01,10,35,12.70
2016,04,01,10,36,12.70
2016,04,01,10,37,12.70
2016,04,01,10,38,12.70
2016,04,01,10,39,12.70
2016,04,01,10,40,12.70
2016,04,01,10,41,12.70
2016,04,01,10,42,12.60
2016,04,01,10,43,12.60
2016,04,01,10,44,12.60
2016,04,01,10,45,12.60
2016,04,01,10,46,12.60
2016,04,01,10,47,12.60
2016,04,01,10,48,12.60
2016,04,01,10,49,12.60
2016,04,01,10,50,12.70
2016,04,01,10,51,12.70
2016,04,01,10,52,12.80
2016,04,01,10,53,12.90
2016,04,01,10,54,13.00
2016,04,01,10,55,13.00
2016,04,01,10,56,13.10
2016,04,01,10,57,13.10
2016,04,01,10,58,13.20
2016,04,01,10,59,13.30
2016,04,01,11,00,13.40
2016,04,01,11,01,13.40
2016,04,01,11,02,13.50
2016,04,01,11,03,13.60
2016,04,01,11,04,13.60
2016,04,01,11,05,13.70
2016,04,01,11,06,13.80
2016,04,01,11,07,13.90
2016,04,01,11,08,13.90
2016,04,01,11,09,13.80
2016,04,01,11,10,13.90
2016,04,01,11,11,13.90
2016,04,01,11,12,14.00
2016,04,01,11,13,14.00
2016,04,01,11,14,14.10
2016,04,01,11,15,14.20
2016,04,01,11,16,14.30
2016,04,01,11,17,14.30
2016,04,01,11,18,14.40
2016,04,01,11,19,14.50
2016,04,01,11,20,14.50
2016,04,01,11,21,14.60
2016,04,01,11,22,14.60
2016,04,01,11,23,14.60
2016,04,01,11,24,14.60
2016,04,01,11,25,14.60
2016,04,01,11,26,14.60
2016,04,01,11,27,14.60
2016,04,01,11,28,14.60
2016,04,01,11,29,14.50
2016,04,01,11,30,14.50
2016,04,01,11,31,14.60
2016,04,01,11,32,14.70
2016,04,01,11,33,14.80
2016,04,01,11,34,14.80
2016,04,01,11,35,14.90
2016,04,01,11,36,14.90
2016,04,01,11,37,15.00
2016,04,01,11,38,15.00
2016,04,01,11,39,15.00
2016,04,01,11,40,15.10
2016,04,01,11,41,15.10
2016,04,01,11,42,15.20
2016,04,01,11,43,15.30
2016,04,01,11,44,15.30
2016,04,01,11,45,15.40
2016,04,01,11,46,15.40
2016,04,01,11,47,15.50
2016,04,01,11,48,15.50
2016,04,01,11,49,15.60
2016,04,01,11,50,15.70
2016,04,01,11,51,15.60
2016,04,01,11,52,15.50
2016,04,01,11,53,15.40
2016,04,01,11,54,15.40
2016,04,01,11,55,15.30
2016,04,01,11,56,15.30
2016,04,01,11,57,15.30
2016,04,01,11,58,15.30
2016,04,01,11,59,15.40
2016,04,01,12,00,15.50
2016,04,01,12,01,15.60
2016,04,01,12,02,15.70
2016,04,01,12,03,15.80
2016,04,01,12,04,15.90
2016,04,01,12,05,15.90
2016,04,01,12,06,16.00
2016,04,01,12,07,16.10
2016,04,01,12,08,16.10
2016,04,01,12,09,16.20
2016,04,01,12,10,16.20
2016,04,01,12,11,16.20
2016,04,01,12,12,16.10
2016,04,01,12,13,16.20
2016,04,01,12,14,16.20
2016,04,01,12,15,16.20
2016,04,01,12,16,16.20
2016,04,01,12,17,16.20
2016,04,01,12,18,16.20
2016,04,01,12,19,16.20
2016,04,01,12,20,16.20
2016,04,01,12,21,16.30
2016,04,01,12,22,16.30
2016,04,01,12,23,16.30
2016,04,01,12,24,16.20
2016,04,01,12,25,16.20
2016,04,01,12,26,16.20
2016,04,01,12,27,16.20
2016,04,01,12,28,16.20
2016,04,01,12,29,16.20
2016,04,01,12,30,16.20
2016,04,01,12,31,16.20
2016,04,01,12,32,16.30
2016,04,01,12,33,16.30
2016,04,01,12,34,16.40
2016,04,01,12,35,16.40
2016,04,01,12,36,16.50
2016,04,01,12,37,16.50
2016,04,01,12,38,16.60
2016,04,01,12,39,16.60
2016,04,01,12,40,16.70
2016,04,01,12,41,16.70
2016,04,01,12,42,16.80
2016,04,01,12,43,16.90
2016,04,01,12,44,16.90
2016,04,01,12,45,16.90
2016,04,01,12,46,16.90
2016,04,01,12,47,16.90
2016,04,01,12,48,16.80
2016,04,01,12,49,16.60
2016,04,01,12,50,16.50
2016,04,01,12,51,16.40
2016,04,01,12,52,16.40
2016,04,01,12,53,16.40
2016,04,01,12,54,16.40
2016,04,01,12,55,16.40
2016,04,01,12,56,16.40
2016,04,01,12,57,16.40
2016,04,01,12,58,16.30
2016,04,01,12,59,16.30
2016,04,01,13,00,16.30
2016,04,01,13,01,16.20
2016,04,01,13,02,16.20
2016,04,01,13,03,16.20
2016,04,01,13,04,16.30
2016,04,01,13,05,16.30
2016,04,01,13,06,16.40
2016,04,01,13,07,16.40
2016,04,01,13,08,16.50
2016,04,01,13,09,16.50
2016,04,01,13,10,16.50
2016,04,01,13,11,16.50
2016,04,01,13,12,16.50
2016,04,01,13,13,16.40
2016,04,01,13,14,16.40
2016,04,01,13,15,16.50
2016,04,01,13,16,16.60
2016,04,01,13,17,16.60
2016,04,01,13,18,16.70
2016,04,01,13,19,16.70
2016,04,01,13,20,16.80
2016,04,01,13,21,16.80
2016,04,01,13,22,16.80
2016,04,01,13,23,16.90
2016,04,01,13,24,16.90
2016,04,01,13,25,16.90
2016,04,01,13,26,16.90
2016,04,01,13,27,16.90
2016,04,01,13,28,16.90
2016,04,01,13,29,16.90
2016,04,01,13,30,16.90
2016,04,01,13,31,16.90
2016,04,01,13,32,16.90
2016,04,01,13,33,16.90
2016,04,01,13,34,17.00
2016,04,01,13,35,17.00
2016,04,01,13,36,17.00
2016,04,01,13,37,17.00
2016,04,01,13,38,17.00
2016,04,01,13,39,17.10
2016,04,01,13,40,17.10
2016,04,01,13,41,17.20
2016,04,01,13,42,17.20
2016,04,01,13,43,17.20
2016,04,01,13,44,17.30
2016,04,01,13,45,17.30
2016,04,01,13,46,17.40
2016,04,01,13,47,17.50
2016,04,01,13,48,17.50
2016,04,01,13,49,17.60
2016,04,01,13,50,17.70
2016,04,01,13,51,17.80
2016,04,01,13,52,17.80
2016,04,01,13,53,17.90
2016,04,01,13,54,18.00
2016,04,01,13,55,18.10
2016,04,01,13,56,18.10
2016,04,01,13,57,18.20
2016,04,01,13,58,18.30
2016,04,01,13,59,18.30
2016,04,01,14,00,18.40
2016,04,01,14,01,18.50
2016,04,01,14,02,18.40
2016,04,01,14,03,18.30
2016,04,01,14,04,18.20
2016,04,01,14,05,18.00
2016,04,01,14,06,17.90
2016,04,01,14,07,17.90
2016,04,01,14,08,17.90
2016,04,01,14,09,17.90
2016,04,01,14,10,17.90
2016,04,01,14,11,17.90
2016,04,01,14,12,17.90
2016,04,01,14,13,18.00
2016,04,01,14,14,18.10
2016,04,01,14,15,18.20
2016,04,01,14,16,18.10
2016,04,01,14,17,18.00
2016,04,01,14,18,18.00
2016,04,01,14,19,17.90
2016,04,01,14,20,17.90
2016,04,01,14,21,18.00
2016,04,01,14,22,18.10
2016,04,01,14,23,18.10
2016,04,01,14,24,18.20
2016,04,01,14,25,18.30
2016,04,01,14,26,18.30
2016,04,01,14,27,18.30
2016,04,01,14,28,18.20
2016,04,01,14,29,18.20
2016,04,01,14,30,18.20
2016,04,01,14,31,18.20
2016,04,01,14,32,18.20
2016,04,01,14,33,18.30
2016,04,01,14,34,18.20
2016,04,01,14,35,18.00
2016,04,01,14,36,17.90
2016,04,01,14,37,17.80
2016,04,01,14,38,17.80
2016,04,01,14,39,17.90
2016,04,01,14,40,17.90
2016,04,01,14,41,17.90
2016,04,01,14,42,18.00
2016,04,01,14,43,18.10
2016,04,01,14,44,18.20
2016,04,01,14,45,18.30
2016,04,01,14,46,18.40
2016,04,01,14,47,18.40
2016,04,01,14,48,18.40
2016,04,01,14,49,18.40
2016,04,01,14,50,18.40
2016,04,01,14,51,18.40
2016,04,01,14,52,18.50
2016,04,01,14,53,18.40
2016,04,01,14,54,18.40
2016,04,01,14,55,18.40
2016,04,01,14,56,18.50
2016,04,01,14,57,18.60
2016,04,01,14,58,18.60
2016,04,01,14,59,18.70
2016,04,01,15,00,18.80
2016,04,01,15,01,18.80
2016,04,01,15,02,18.70
2016,04,01,15,03,18.70
2016,04,01,15,04,18.70
2016,04,01,15,05,18.70
2016,04,01,15,06,18.60
2016,04,01,15,07,18.50
2016,04,01,15,08,18.30
2016,04,01,15,09,18.20
2016,04,01,15,10,18.10
2016,04,01,15,11,18.00
2016,04,01,15,12,17.90
2016,04,01,15,13,17.80
2016,04,01,15,14,17.90
2016,04,01,15,15,17.90
2016,04,01,15,16,18.10
2016,04,01,15,17,18.20
2016,04,01,15,18,18.20
2016,04,01,15,19,18.30
2016,04,01,15,20,18.40
2016,04,01,15,21,18.50
2016,04,01,15,22,18.60
2016,04,01,15,23,18.70
2016,04,01,15,24,18.80
2016,04,01,15,25,18.80
2016,04,01,15,26,18.80
2016,04,01,15,27,18.80
2016,04,01,15,28,18.70
2016,04,01,15,29,18.70
2016,04,01,15,30,18.70
2016,04,01,15,31,18.70
2016,04,01,15,32,18.70
2016,04,01,15,33,18.60
2016,04,01,15,34,18.60
2016,04,01,15,35,18.60
2016,04,01,15,36,18.60
2016,04,01,15,37,18.70
2016,04,01,15,38,18.70
2016,04,01,15,39,18.80
2016,04,01,15,40,18.80
2016,04,01,15,41,18.90
2016,04,01,15,42,18.90
2016,04,01,15,43,18.90
2016,04,01,15,44,19.00
2016,04,01,15,45,19.00
2016,04,01,15,46,19.00
2016,04,01,15,47,19.00
2016,04,01,15,48,19.10
2016,04,01,15,49,19.10
2016,04,01,15,50,19.10
2016,04,01,15,51,19.10
2016,04,01,15,52,19.10
2016,04,01,15,53,19.00
2016,04,01,15,54,19.00
2016,04,01,15,55,19.00
2016,04,01,15,56,18.90
2016,04,01,15,57,18.90
2016,04,01,15,58,18.90
2016,04,01,15,59,18.80
2016,04,01,16,00,18.70
2016,04,01,16,01,18.70
2016,04,01,16,02,18.70
2016,04,01,16,03,18.80
2016,04,01,16,04,18.80
2016,04,01,16,05,18.80
2016,04,01,16,06,18.80
2016,04,01,16,07,18.90
2016,04,01,16,08,18.90
2016,04,01,16,09,18.90
2016,04,01,16,10,19.00
2016,04,01,16,11,19.00
2016,04,01,16,12,19.00
2016,04,01,16,13,19.10
2016,04,01,16,14,19.10
2016,04,01,16,15,19.20
2016,04,01,16,16,19.20
2016,04,01,16,17,19.30
2016,04,01,16,18,19.30
2016,04,01,16,19,19.30
2016,04,01,16,20,19.30
2016,04,01,16,21,19.30
2016,04,01,16,22,19.30
2016,04,01,16,23,19.30
2016,04,01,16,24,19.40
2016,04,01,16,25,19.40
2016,04,01,16,26,19.30
2016,04,01,16,27,19.30
2016,04,01,16,28,19.30
2016,04,01,16,29,19.30
2016,04,01,16,30,19.20
2016,04,01,16,31,19.20
2016,04,01,16,32,19.10
2016,04,01,16,33,18.90
2016,04,01,16,34,18.90
2016,04,01,16,35,18.90
2016,04,01,16,36,18.90
2016,04,01,16,37,19.00
2016,04,01,16,38,19.10
2016,04,01,16,39,19.10
2016,04,01,16,40,19.20
2016,04,01,16,41,19.30
2016,04,01,16,42,19.30
2016,04,01,16,43,19.30
2016,04,01,16,44,19.30
2016,04,01,16,45,19.30
2016,04,01,16,46,19.20
2016,04,01,16,47,19.20
2016,04,01,16,48,19.20
2016,04,01,16,49,19.20
2016,04,01,16,50,19.20
2016,04,01,16,51,19.20
2016,04,01,16,52,19.20
2016,04,01,16,53,19.20
2016,04,01,16,54,19.30
2016,04,01,16,55,19.30
2016,04,01,16,56,19.30
2016,04,01,16,57,19.30
2016,04,01,16,58,19.30
2016,04,01,16,59,19.30
2016,04,01,17,00,19.30
2016,04,01,17,01,19.30
2016,04,01,17,02,19.30
2016,04,01,17,03,19.30
2016,04,01,17,04,19.30
2016,04,01,17,05,19.30
2016,04,01,17,06,19.30
2016,04,01,17,07,19.30
2016,04,01,17,08,19.30
2016,04,01,17,09,19.30
2016,04,01,17,10,19.30
2016,04,01,17,11,19.30
2016,04,01,17,12,19.30
2016,04,01,17,13,19.30
2016,04,01,17,14,19.30
2016,04,01,17,15,19.30
2016,04,01,17,16,19.30
2016,04,01,17,17,19.30
2016,04,01,17,18,19.30
2016,04,01,17,19,19.30
2016,04,01,17,20,19.30
2016,04,01,17,21,19.30
2016,04,01,17,22,19.20
2016,04,01,17,23,19.20
2016,04,01,17,24,19.20
2016,04,01,17,25,19.10
2016,04,01,17,26,19.20
2016,04,01,17,27,19.10
2016,04,01,17,28,19.10
2016,04,01,17,29,19.10
2016,04,01,17,30,19.10
2016,04,01,17,31,19.10
2016,04,01,17,32,19.10
2016,04,01,17,33,19.10
2016,04,01,17,34,19.10
2016,04,01,17,35,19.10
2016,04,01,17,36,19.10
2016,04,01,17,37,19.10
2016,04,01,17,38,19.10
2016,04,01,17,39,19.10
2016,04,01,17,40,19.20
2016,04,01,17,41,19.10
2016,04,01,17,42,19.10